Flag for Poland Weather past 2 weeks in Poznan, Poland

Now
52 °F

Fog.


Feels Like: 52 °F
Forecast: 60 / 90 °F
Wind: 1 mph from West

Location: Poznan Airport

Current Time: Aug 29, 2015 at 5:31:50 AM

Latest Report: Aug 29, 2015 at 5:00 AM


Visibility: N/A

Pressure: 30.21 "Hg

Humidity: 94%

Dew point: 50 °F

Location of PoznanLocation

Historic Weather in Poznan — Graph

°F

Poznan temperature yesterday

Maximum temperature yesterday: 75 °F (at 12:00 AM)
Minimum temperature yesterday: 59 °F (at 11:00 PM)
Average temperature yesterday: 67 °F

Past Weeks' High & Low Weather Summary

 TemperatureHumidityPressure
High93 °F (Aug 15, 5:30 PM)100% (Aug 15, 11:00 PM)30.36 "Hg (Aug 15, 11:00 PM)
Low52 °F (Aug 29, 3:30 AM)21% (Aug 19, 5:00 PM)29.71 "Hg (Aug 15, 5:00 PM)
Average70 °F52%30.00 "Hg
* Reported Aug 14 4:00 AM — Aug 29 4:00 AM, Poznan, Weather by CustomWeather, © 2015

Note: Actual official high and low records may vary slightly from our data, if they occured in-between our weather recording intervals... More about our weather records

Advertising

Poznan weather history for previous 24 hours

 ConditionsComfort  
Time TempWeatherWind HumidityBarometerVisibility
4:00 AM
Sat, Aug 29
54 °FFog.1 mph94%30.21 "HgN/A
3:30 AM52 °FFog.1 mph94%30.21 "HgN/A
3:00 AM54 °FFog.1 mph94%30.18 "HgN/A
2:30 AM54 °FFog.1 mph94%30.18 "HgN/A
2:00 AM54 °FFog.2 mph94%30.18 "HgN/A
1:30 AM54 °FLight fog.1 mph94%30.18 "HgN/A
1:00 AM55 °FFog.2 mph88%30.18 "HgN/A
12:30 AM57 °FClear.2 mph88%30.15 "Hg10 mi
12:00 AM57 °FClear.1 mph88%30.15 "Hg10 mi
11:00 PM
Fri, Aug 28
59 °FClear.3 mph82%30.15 "Hg10 mi
10:30 PM61 °FClear.3 mph83%30.15 "Hg10 mi
10:00 PM63 °FClear.5 mph77%30.12 "Hg10 mi
9:30 PM63 °FClear.6 mph77%30.12 "Hg10 mi
9:00 PM63 °FClear.3 mph77%30.12 "Hg10 mi
8:30 PM64 °FSunny.6 mph73%30.09 "Hg10 mi
8:00 PM66 °FSunny.5 mph68%30.09 "Hg10 mi
7:30 PM66 °FPassing clouds.8 mph68%30.09 "HgN/A
7:00 PM66 °FPassing clouds.8 mph73%30.09 "HgN/A
6:30 PM66 °FScattered clouds.9 mph73%30.09 "HgN/A
6:00 PM68 °FBroken clouds.9 mph69%30.07 "HgN/A
5:30 PM68 °FBroken clouds.10 mph69%30.07 "HgN/A
5:00 PM68 °FPartly sunny.10 mph69%30.07 "HgN/A
4:30 PM68 °FPartly sunny.10 mph69%30.07 "HgN/A
4:00 PM68 °FPartly sunny.9 mph69%30.07 "HgN/A
3:30 PM68 °FScattered clouds.9 mph73%30.07 "HgN/A
3:00 PM68 °FPartly sunny.8 mph73%30.04 "HgN/A
2:30 PM68 °FScattered clouds.8 mph73%30.04 "HgN/A
2:00 PM66 °FBroken clouds.9 mph78%30.04 "HgN/A
1:30 PM66 °FBroken clouds.8 mph83%30.04 "HgN/A
1:00 PM66 °FPartly sunny.5 mph83%30.01 "HgN/A
12:30 PM64 °FPartly sunny.9 mph88%30.01 "HgN/A
12:00 PM64 °FPartly sunny.8 mph88%30.01 "HgN/A
11:30 AM64 °FBroken clouds.12 mph88%29.98 "HgN/A
11:00 AM66 °FPartly sunny.10 mph83%29.98 "HgN/A
10:30 AM66 °FScattered clouds.10 mph88%29.95 "HgN/A
10:00 AM66 °FScattered clouds.7 mph88%29.95 "HgN/A
9:30 AM66 °FLight rain. Partly sunny.5 mph88%29.92 "HgN/A
9:00 AM64 °FLight rain. Scattered clouds.3 mph88%29.92 "HgN/A
8:30 AM64 °FLight rain. Clear.5 mph88%29.92 "HgN/A
8:00 AM64 °FLight rain. Clear.3 mph88%29.92 "HgN/A
7:30 AM64 °FLight rain. Clear.3 mph88%29.89 "HgN/A
7:00 AM66 °FLight rain. Clear.2 mph78%29.89 "HgN/A
6:00 AM68 °FClear.6 mph69%29.86 "Hg10 mi
5:00 AM70 °FClear.3 mph64%29.83 "Hg10 mi
Weather by CustomWeather, © 2015

See weather overviewHow to use our weather pages